This is the latest recevied weather packets stored in our database for station/object N8AMF. If no packets are shown the sender has not sent any weather packets the latest 10 day(s).
| Time | Temp. | Humidity | Pressure | Rain* | Wind** | Luminosity | Snow |
|---|---|---|---|---|---|---|---|
| 1777326969 | 22.22° C | 46% | 1013.7 hPa | 0 mm | - | 167 W/m² | - |
| 1777326666 | 22.22° C | 48% | 1013.6 hPa | 0 mm | - | 180 W/m² | - |
| 1777326363 | 22.22° C | 48% | 1013.7 hPa | 0 mm | - | 183 W/m² | - |
| 1777326061 | 22.22° C | 47% | 1013.8 hPa | 0 mm | - | 187 W/m² | - |
| 1777325758 | 22.22° C | 46% | 1013.7 hPa | 0 mm | - | 189 W/m² | - |
| 1777325457 | 22.22° C | 47% | 1013.8 hPa | 0 mm | - | 198 W/m² | - |
| 1777325154 | 22.22° C | 46% | 1013.8 hPa | 0 mm | - | 206 W/m² | - |
| 1777324850 | 22.78° C | 47% | 1013.7 hPa | 0 mm | - | 223 W/m² | - |
| 1777324548 | 22.78° C | 46% | 1013.5 hPa | 0 mm | - | 267 W/m² | - |
| 1777324245 | 22.78° C | 44% | 1013.7 hPa | 0 mm | - | 297 W/m² | - |
| 1777323943 | 22.78° C | 48% | 1013.8 hPa | 0 mm | - | 329 W/m² | - |
| 1777323640 | 23.33° C | 50% | 1013.8 hPa | 0 mm | - | 339 W/m² | - |
| 1777323337 | 23.33° C | 48% | 1014 hPa | 0 mm | - | 365 W/m² | - |
| 1777323035 | 23.33° C | 44% | 1014.1 hPa | 0 mm | - | 366 W/m² | - |
| 1777322733 | 22.78° C | 46% | 1014.2 hPa | 0 mm | - | 366 W/m² | - |
| 1777322431 | 22.78° C | 48% | 1014 hPa | 0 mm | - | 364 W/m² | - |
| 1777322127 | 22.78° C | 47% | 1014.2 hPa | 0 mm | - | 384 W/m² | - |
| 1777321824 | 22.78° C | 46% | 1014.1 hPa | 0 mm | - | 381 W/m² | - |
| 1777321520 | 22.78° C | 50% | 1014.5 hPa | 0 mm | - | 357 W/m² | - |
| 1777321218 | 23.33° C | 46% | 1014.3 hPa | 0 mm | - | 344 W/m² | - |
| 1777320915 | 22.78° C | 46% | 1014.3 hPa | 0 mm | - | 358 W/m² | - |
| 1777320613 | 22.78° C | 47% | 1014.3 hPa | 0 mm | - | 413 W/m² | - |
| 1777320309 | 22.78° C | 44% | 1014.2 hPa | 0 mm | - | 436 W/m² | - |
| 1777320006 | 23.33° C | 45% | 1014.4 hPa | 0 mm | - | 479 W/m² | - |
| 1777319703 | 22.78° C | 44% | 1014.4 hPa | 0 mm | - | 479 W/m² | - |
* Rain latest hour (hover to see other rain measurements)
** Current wind speed in m/s (hover to see current wind gust speed)